{"data":{"norad_id":62887,"epoch":"2026-09-21T21:11:24.667296Z","epoch_age_seconds":48663,"freshness":"FRESH","line1":"1 62887U 25024J   26264.88292439  .00162005  00000+0  12321-2 0  9993","line2":"2 62887  42.9977  78.7834 0001769  19.6588 340.4348 15.71022919 94329","mean_motion":15.71022919,"eccentricity":0.0001769,"inclination_deg":42.9977,"raan_deg":78.7834,"arg_perigee_deg":19.6588,"mean_anomaly_deg":340.4348,"bstar":0.0012321,"rev_number":9432,"period_min":91.660024980196,"perigee_km":354.78103162659,"apogee_km":357.16355949536,"semimajor_km":6734.109295561,"source":"CELESTRAK","updated_at":"2026-09-22T09:00:49.703521Z"}}